User: anonymous   Login
Location: Bismarck
(46.7731°N, 100.8200°W)
Time: 12:11:39
(UTC-06:00)
Language:

Cosmos 1125 Rocket - Orbit

View from above orbital plane
View from above orbital plane
View from above satellite
View from above satellite

Ground track
Ground track

The orbit data is extracted from the following two-line orbital elements,

1 11511U 79078B   17019.71488647  .00000051  00000-0  25992-4 0  9990
2 11511  74.0348 228.1876 0015202 151.9853 208.2122 14.36750321957294
Epoch (UTC): 19 January 2017 17:09:26
Eccentricity: 0.0015202
inclination: 74.0348°
perigee height: 758 km
apogee height: 780 km
right ascension of ascending node: 228.1876°
argument of perigee: 151.9853°
revolutions per day: 14.36750321
mean anomaly at epoch: 208.2122°
orbit number at epoch: 95729

The dashed part of the orbit path shows where the satellite is in the earth's shadow,  

DLR